Erie, CO

3:41 PM MDT on September 21, 2017 (GMT -0600)
Erie Municipal Airport

Weather History for KEIK - February, 2013

Change the Weather History Date:

Tuesday, February 19, 2013

  Actual Average (KBJC) Record (KBJC)
Temperature  
Mean Temperature 26 °F -  
Max Temperature 40 °F 44 °F 69 °F (2013)
Min Temperature 12 °F 25 °F 0 °F (2006)
Degree Days  
Heating Degree Days 39    
Moisture  
Dew Point 11 °F    
Average Humidity 56    
Maximum Humidity 79    
Minimum Humidity 27    
Precipitation  
Precipitation 0.00 in - - ()
Sea Level Pressure  
Sea Level Pressure 29.93 in    
Wind  
Wind Speed 1 mph (NNW)    
Max Wind Speed 9 mph    
Max Gust Speed -    
Visibility 10 miles    
Events      
Averages and records for this station are not official NWS values.
T = Trace of Precipitation, MM = Missing Value Source: NWS Daily Summary

Daily Weather History Graph

Daily Weather History Graph

Search for Another Location

Airport or City:

Trip Planner

Search our weather history database for the weather conditions in past years. The results will help you decide how hot, cold, wet, or windy it might be!

Date:

Astronomy

Feb. 19, 2013 Rise Set
Actual Time 6:47 AM MST 5:41 PM MST
Civil Twilight 6:19 AM MST 6:08 PM MST
Nautical Twilight 5:48 AM MST 6:40 PM MST
Astronomical Twilight 5:16 AM MST 7:11 PM MST
Moon 12:14 PM MST (2/19) 2:21 AM MST (2/19)
Length of Visible Light 11h 48m
Length of Day
10h 53m
Waxing Gibbous, 68% of the Moon is Illuminated
Feb 19
Waxing Gibbous
Feb 25
Full
Mar 4
Last Quarter
Mar 11
New
Mar 19
First Quarter

Hourly Weather History & Observations

Time (MST) Temp. Windchill Dew Point Humidity Pressure Visibility Wind Dir Wind Speed Gust Speed Precip Events Conditions
12:16 AM 18.1 °F - 7.2 °F 62% 30.06 in 10.0 mi Calm Calm - N/A   Clear
12:36 AM 16.0 °F - 7.3 °F 69% 30.06 in 10.0 mi Calm Calm - N/A   Clear
12:56 AM 16.3 °F - 6.8 °F 66% 30.06 in 10.0 mi Calm Calm - N/A   Clear
1:16 AM 13.8 °F - 6.6 °F 73% 30.06 in 10.0 mi Calm Calm - N/A   Clear
1:36 AM 13.5 °F - 6.4 °F 74% 30.05 in 10.0 mi Calm Calm - N/A   Clear
1:56 AM 14.4 °F - 7.7 °F 75% 30.05 in 10.0 mi Calm Calm - N/A   Clear
2:16 AM 13.1 °F - 7.7 °F 79% 30.05 in 10.0 mi Calm Calm - N/A   Clear
2:36 AM 12.2 °F - 5.9 °F 76% 30.04 in 10.0 mi Calm Calm - N/A   Clear
2:56 AM 14.0 °F - 6.8 °F 73% 30.03 in 10.0 mi Calm Calm - N/A   Clear
3:16 AM 14.5 °F - 7.7 °F 74% 30.03 in 10.0 mi Calm Calm - N/A   Clear
3:36 AM 15.8 °F - 8.2 °F 72% 30.03 in 10.0 mi Calm Calm - N/A   Clear
3:56 AM 16.2 °F 6.5 °F 7.7 °F 69% 30.02 in 10.0 mi NNW 6.9 mph - N/A   Clear
4:16 AM 15.8 °F - 8.6 °F 73% 30.02 in 10.0 mi Calm Calm - N/A   Clear
4:56 AM 17.8 °F - 9.5 °F 70% 30.02 in 10.0 mi Calm Calm - N/A   Clear
5:16 AM 16.9 °F - 9.7 °F 73% 30.01 in 10.0 mi Calm Calm - N/A   Clear
5:36 AM 17.4 °F - 9.7 °F 72% 30.01 in 10.0 mi Calm Calm - N/A   Clear
5:56 AM 18.9 °F - 10.8 °F 71% 30.01 in 10.0 mi Calm Calm - N/A   Clear
6:16 AM 18.5 °F - 11.1 °F 73% 30.01 in 10.0 mi Calm Calm - N/A   Clear
6:36 AM 18.3 °F - 11.3 °F 74% 30.01 in 10.0 mi Calm Calm - N/A   Clear
6:56 AM 17.8 °F - 10.6 °F 73% 30.01 in 10.0 mi Calm Calm - N/A   Clear
7:16 AM 18.1 °F - 11.5 °F 75% 30.01 in 10.0 mi Calm Calm - N/A   Clear
7:36 AM 17.6 °F - 12.2 °F 79% 30.02 in 10.0 mi Calm Calm - N/A   Clear
7:56 AM 19.4 °F - 13.3 °F 77% 30.02 in 10.0 mi Calm Calm - N/A   Clear
8:36 AM 22.6 °F - 14.4 °F 71% 30.02 in 10.0 mi Calm Calm - N/A   Clear
8:56 AM 23.7 °F - 14.7 °F 69% 30.03 in 10.0 mi Calm Calm - N/A   Clear
9:16 AM 25.2 °F - 15.3 °F 66% 30.02 in 10.0 mi Calm Calm - N/A   Clear
9:36 AM 26.2 °F - 15.1 °F 63% 30.01 in 10.0 mi Calm Calm - N/A   Clear
9:56 AM 26.4 °F - 14.9 °F 62% 30.01 in 10.0 mi Calm Calm - N/A   Clear
10:16 AM 26.8 °F - 15.1 °F 61% 30.00 in 10.0 mi Calm Calm - N/A   Clear
10:36 AM 28.0 °F - 14.4 °F 57% 30.00 in 10.0 mi Calm Calm - N/A   Clear
10:56 AM 29.7 °F - 14.2 °F 53% 29.99 in 10.0 mi Calm Calm - N/A   Clear
11:16 AM 29.7 °F - 13.5 °F 51% 29.98 in 10.0 mi Calm Calm - N/A   Clear
11:36 AM 31.6 °F 28.3 °F 13.3 °F 47% 29.96 in 10.0 mi East 3.5 mph - N/A   Clear
11:56 AM 32.7 °F - 12.2 °F 43% 29.95 in 10.0 mi Calm Calm - N/A   Clear
12:16 PM 33.8 °F 30.8 °F 12.2 °F 41% 29.94 in 10.0 mi North 3.5 mph - N/A   Clear
12:36 PM 33.8 °F 30.8 °F 11.5 °F 40% 29.92 in 10.0 mi North 3.5 mph - N/A   Clear
12:56 PM 35.1 °F 32.2 °F 10.6 °F 36% 29.91 in 10.0 mi NNE 3.5 mph - N/A   Clear
1:16 PM 35.6 °F - 10.0 °F 35% 29.90 in 10.0 mi Calm Calm - N/A   Clear
1:36 PM 37.6 °F 35.1 °F 9.7 °F 32% 29.89 in 10.0 mi West 3.5 mph - N/A   Clear
1:56 PM 38.3 °F - 9.7 °F 31% 29.87 in 10.0 mi Calm Calm - N/A   Clear
2:16 PM 38.5 °F 32.7 °F 9.5 °F 30% 29.86 in 10.0 mi NNW 8.1 mph - N/A   Clear
2:36 PM 37.4 °F 33.8 °F 8.8 °F 31% 29.86 in 10.0 mi NNW 4.6 mph - N/A   Clear
2:56 PM 39.0 °F 35.7 °F 9.3 °F 29% 29.86 in 10.0 mi NW 4.6 mph - N/A   Clear
3:16 PM 39.0 °F 35.7 °F 9.1 °F 29% 29.84 in 10.0 mi NNW 4.6 mph - N/A   Clear
3:25 PM 39.2 °F - 9.3 °F 29% - - North - - N/A   Unknown
4:16 PM 40.8 °F 36.9 °F 8.8 °F 27% 29.84 in 10.0 mi NW 5.8 mph - N/A   Unknown
5:36 PM 34.9 °F 30.8 °F 9.5 °F 35% 29.83 in 10.0 mi North 4.6 mph - N/A   Clear
5:56 PM 32.0 °F 28.7 °F 10.2 °F 40% 29.83 in 10.0 mi North 3.5 mph - N/A   Clear
6:16 PM 32.0 °F - 9.5 °F 39% 29.84 in 10.0 mi Calm Calm - N/A   Clear
6:36 PM 31.1 °F - 9.5 °F 41% 29.83 in 10.0 mi Calm Calm - N/A   Clear
6:56 PM 31.8 °F - 10.9 °F 42% 29.83 in 10.0 mi Calm Calm - N/A   Clear
7:16 PM 32.0 °F - 11.1 °F 42% 29.83 in 10.0 mi Calm Calm - N/A   Clear
7:36 PM 29.5 °F - 12.0 °F 48% 29.82 in 10.0 mi Calm Calm - N/A   Clear
7:56 PM 29.5 °F - 9.9 °F 44% 29.81 in 10.0 mi Calm Calm - N/A   Clear
8:16 PM 30.0 °F - 11.1 °F 45% 29.81 in 10.0 mi Calm Calm - N/A   Clear
8:36 PM 29.8 °F - 11.8 °F 47% 29.81 in 10.0 mi Calm Calm - N/A   Clear
8:56 PM 30.2 °F - 10.9 °F 45% 29.80 in 10.0 mi Calm Calm - N/A   Clear
9:16 PM 29.3 °F 24.3 °F 11.1 °F 47% 29.80 in 10.0 mi WNW 4.6 mph - N/A   Clear
9:36 PM 28.4 °F 23.3 °F 10.6 °F 47% 29.80 in 10.0 mi WNW 4.6 mph - N/A   Clear
9:56 PM 28.4 °F 21.2 °F 10.8 °F 48% 29.80 in 10.0 mi NW 6.9 mph - N/A   Clear
10:16 PM 26.6 °F 20.0 °F 10.8 °F 51% 29.80 in 10.0 mi NNW 5.8 mph - N/A   Clear
10:36 PM 26.4 °F 17.3 °F 12.6 °F 56% 29.79 in 10.0 mi NNW 9.2 mph - N/A   Clear
10:56 PM 25.9 °F 19.2 °F 14.0 °F 61% 29.78 in 10.0 mi North 5.8 mph - N/A   Clear
11:16 PM 25.0 °F 17.1 °F 14.5 °F 65% 29.78 in 10.0 mi North 6.9 mph - N/A   Clear
11:36 PM 24.8 °F 15.3 °F 14.9 °F 66% 29.77 in 10.0 mi North 9.2 mph - N/A   Clear
11:56 PM 23.9 °F 16.8 °F 14.9 °F 69% 29.77 in 10.0 mi NNE 5.8 mph - N/A   Clear